Terminal Aerodrome Forecast
Issued by NWS

Home | Current Version | Previous Version | Text Only | Print | Product List | Glossary On
Versions: 1 2 3 4 5 6 7 8 9 10 11 12
000
FTAK31 PAJN 182300
TAFAGY
TAF
PAGY 182320Z 1900/1924 20020G30KT P6SM VCSH BKN050 OVC070
     FM190600 21015G25KT P6SM -RA BKN035 OVC060
     FM191500 21010G20KT 5SM -RA BKN025 OVC050
      AMD LTD TO CLD VIS AND WIND=

USA.gov is the U.S. government's official web portal to all federal, state and local government web resources and services.